Find Starlink 3760

NORAD ID: 52298 Int'l Des: 2022-041 Owner: SPXS Country: US Constellation: starlink operational
LEOCIRCULAR

实时位置

正在加载3D地球...

关于 Starlink 3760

正在加载描述...

即将过境

Passes for default location (London). Set your location on the main map for personalized predictions.

高度历史

Loading altitude history...

两行轨道根数

1 52298U 22041AP 26106.78244156 -.00000496 00000-0 -13086-4 0 9990
2 52298 53.2163 287.7291 0001289 92.6124 267.5015 15.08838760220262
Epoch: Apr 16, 2026 • Age: 13 hours

当前状态

高度 545.3 km
速度 7.60 km/s
星下点 52.64°N, 38.84°E
发射日期 Apr 21, 2022
运行时间 3.9 years
类型 internet

技术详情

分类 Payload
质量 297.00 kg
干质量 275.00 kg
总质量 297.00 kg
长度 0.20 m
直径 2.80 m
跨度 9.00 m
形状 Box + pan
制造商 SPXS
平台类型 Starlink
阶段状态 In Orbit
所有者/国家 SPXS/US

Most Searched